Change the Weather History Date:

Monday, March 10, 2014

  Actual Average Record
Temperature  
Mean Temperature -29 °F -  
Max Temperature -32 °F -3 °F 17 °F (2003)
Min Temperature -34 °F -16 °F -38 °F (2007)
Degree Days  
Heating Degree Days 94    
Moisture  
Dew Point -34 °F    
Average Humidity 70    
Maximum Humidity 76    
Minimum Humidity 69    
Precipitation  
Precipitation 0.00 in - - ()
Sea Level Pressure  
Sea Level Pressure 29.95 in    
Wind  
Wind Speed 4 mph (WSW)    
Max Wind Speed 10 mph    
Max Gust Speed -    
Visibility 7 miles    
Events Snow    
Averages and records for this station are not official NWS values.
T = Trace of Precipitation, MM = Missing Value Source: NWS Daily Summary

Daily Weather History Graph

Daily Weather History Graph

Search for Another Location

Airport or City:

Trip Planner

Search our weather history database for the weather conditions in past years. The results will help you decide how hot, cold, wet, or windy it might be!

Date:

Astronomy

Mar. 10, 2014 Rise Set
Actual Time 8:18 AM AKDT 7:12 PM AKDT
Civil Twilight 7:17 AM AKDT 8:13 PM AKDT
Nautical Twilight 6:05 AM AKDT 9:26 PM AKDT
Astronomical Twilight 4:41 AM AKDT 10:52 PM AKDT
Moon 11:18 AM AKDT (3/10) 7:24 AM AKDT (3/10)
Length of Visible Light 12h 55m
Length of Day
10h 53m
Waxing Gibbous, 71% of the Moon is Illuminated
Mar 10
Waxing Gibbous
Mar 16
Full
Mar 23
Last Quarter
Mar 30
New
Apr 7
First Quarter

Hourly Weather History & Observations

Time (AKDT) Temp. Windchill Dew Point Humidity Pressure Visibility Wind Dir Wind Speed Gust Speed Precip Events Conditions
12:01 AM -29.0 °F -52.3 °F -35.0 °F 73% 30.00 in 9.0 mi WSW 10.4 mph - 0.00 in Snow Light Snow
1:01 AM -29.0 °F -49.5 °F -36.0 °F 69% 30.00 in 10.0 mi West 8.1 mph - 0.00 in   Clear
2:01 AM -29.9 °F -49.0 °F - N/A% 30.00 in 10.0 mi West 6.9 mph - 0.00 in   Clear
3:01 AM -31.0 °F -46.1 °F - N/A% 30.00 in 10.0 mi WSW 4.6 mph - N/A   Clear
4:01 AM -31.0 °F -46.1 °F - N/A% 29.99 in 10.0 mi WSW 4.6 mph - N/A   Clear
5:01 AM -31.0 °F -48.4 °F - N/A% 29.99 in 10.0 mi SSW 5.8 mph - N/A   Clear
6:01 AM -32.1 °F -44.5 °F - N/A% 29.98 in 10.0 mi SSW 3.5 mph - N/A   Clear
7:01 AM -32.1 °F -44.5 °F - N/A% 29.97 in 10.0 mi WSW 3.5 mph - N/A   Clear
8:01 AM -33.0 °F -45.5 °F - N/A% 29.97 in 10.0 mi SW 3.5 mph - N/A   Clear
8:24 AM -34.6 °F - - N/A% 29.97 in 1.8 mi Calm Calm - N/A   Clear
8:30 AM -34.6 °F - - N/A% 29.97 in 3.0 mi Calm Calm - N/A   Clear
8:54 AM -34.6 °F -47.4 °F - N/A% 29.97 in 1.8 mi WSW 3.5 mph - N/A   Clear
9:01 AM -34.1 °F - - N/A% 29.97 in 1.2 mi Calm Calm - N/A   Clear
9:10 AM -34.6 °F -47.4 °F - N/A% 29.97 in 3.0 mi WSW 3.5 mph - N/A   Clear
10:01 AM -29.9 °F - - N/A% 29.98 in 4.0 mi Calm Calm - N/A   Haze
11:01 AM -27.9 °F - -35.0 °F 69% 29.98 in 3.0 mi Calm Calm - N/A   Haze
11:08 AM -27.4 °F -39.2 °F -34.6 °F 69% 29.98 in 2.5 mi West 3.5 mph - N/A   Haze
11:24 AM -27.4 °F -39.2 °F -34.6 °F 69% 29.98 in 9.0 mi NW 3.5 mph - N/A   Mostly Cloudy
11:34 AM -27.4 °F -39.2 °F -34.6 °F 69% 29.97 in 6.0 mi WNW 3.5 mph - N/A   Haze
12:01 PM -27.9 °F - -35.0 °F 69% 29.97 in 10.0 mi Calm Calm - N/A   Scattered Clouds
12:18 PM -27.4 °F - -34.6 °F 69% 29.97 in 4.0 mi Calm Calm - N/A   Haze
1:01 PM -26.0 °F -37.5 °F -33.0 °F 69% 29.97 in 4.0 mi West 3.5 mph - N/A   Haze
2:01 PM -24.0 °F - -31.0 °F 70% 29.97 in 8.0 mi Calm Calm - N/A   Mostly Cloudy
3:01 PM -25.6 °F -39.8 °F -32.8 °F 69% 29.96 in 8.0 mi WSW 4.6 mph - N/A   Overcast
3:31 PM -25.6 °F -39.8 °F -31.0 °F 76% 29.95 in 9.0 mi WSW 4.6 mph - N/A   Scattered Clouds
4:01 PM -24.0 °F - -31.0 °F 70% 29.95 in 5.0 mi Calm Calm - N/A   Haze
5:01 PM -26.0 °F -40.2 °F -33.0 °F 69% 29.94 in 10.0 mi West 4.6 mph - N/A   Clear
6:01 PM -26.0 °F - -32.1 °F 73% 29.92 in 10.0 mi Calm Calm - N/A   Clear
7:01 PM -27.9 °F - -35.0 °F 69% 29.90 in 10.0 mi Calm Calm - N/A   Clear
8:01 PM -29.9 °F -42.0 °F - N/A% 29.87 in 10.0 mi SE 3.5 mph - N/A   Clear
8:12 PM -29.2 °F - - N/A% 29.87 in 5.0 mi Calm Calm - N/A   Haze
9:01 PM -31.0 °F -46.1 °F - N/A% 29.86 in 10.0 mi SSE 4.6 mph - 0.00 in   Clear
10:01 PM -32.1 °F -47.3 °F - N/A% 29.83 in 8.0 mi ESE 4.6 mph - N/A   Clear
11:01 PM -31.0 °F - - N/A% 29.80 in 10.0 mi Calm Calm - N/A   Clear